TimeEST,TemperatureF,Dew PointF,Humidity,Sea Level PressureIn,VisibilityMPH,Wind Direction,Wind SpeedMPH,Gust SpeedMPH,PrecipitationIn,Events,Conditions,WindDirDegrees,DateUTC
12:54 AM,32.0,23.0,69,29.89,10.0,SW,5.8,-,N/A,,Overcast,230,2013-02-24 05:54:00
1:54 AM,32.0,23.0,69,29.87,10.0,Calm,Calm,-,N/A,,Overcast,0,2013-02-24 06:54:00
2:54 AM,30.9,23.0,72,29.87,10.0,SW,4.6,-,N/A,,Overcast,230,2013-02-24 07:54:00
3:54 AM,30.9,23.0,72,29.87,10.0,SW,5.8,-,N/A,,Overcast,230,2013-02-24 08:54:00
4:54 AM,30.9,21.9,69,29.87,10.0,West,8.1,-,N/A,,Overcast,260,2013-02-24 09:54:00
5:54 AM,30.9,21.9,69,29.88,9.0,West,10.4,-,0.00,Snow,Light Snow,260,2013-02-24 10:54:00
6:22 AM,30.2,21.2,69,29.86,9.0,WSW,10.4,-,0.00,Snow,Light Snow,250,2013-02-24 11:22:00
6:54 AM,30.9,21.9,69,29.88,10.0,WSW,10.4,-,0.00,,Overcast,250,2013-02-24 11:54:00
7:54 AM,30.9,21.9,69,29.88,10.0,West,10.4,-,N/A,,Overcast,270,2013-02-24 12:54:00
8:54 AM,30.9,21.9,69,29.89,10.0,West,10.4,-,N/A,,Overcast,260,2013-02-24 13:54:00
9:54 AM,32.0,23.0,69,29.89,6.0,West,13.8,-,0.00,Snow,Light Snow,270,2013-02-24 14:54:00
10:09 AM,30.2,24.8,80,29.87,1.8,West,13.8,-,0.00,Snow,Light Snow,260,2013-02-24 15:09:00
10:31 AM,30.2,24.8,80,29.88,2.5,West,13.8,18.4,0.00,Snow,Light Snow,280,2013-02-24 15:31:00
10:38 AM,30.2,24.8,80,29.88,4.0,West,13.8,-,0.00,Snow,Light Snow,260,2013-02-24 15:38:00
10:54 AM,30.9,25.0,79,29.90,3.0,West,16.1,20.7,0.00,Snow,Light Snow,270,2013-02-24 15:54:00
11:54 AM,32.0,24.1,73,29.91,5.0,West,12.7,-,0.00,Snow,Light Snow,270,2013-02-24 16:54:00
12:03 PM,30.2,24.8,80,29.89,1.8,West,13.8,-,0.00,Snow,Light Snow,270,2013-02-24 17:03:00
12:33 PM,30.2,26.6,86,29.89,2.0,West,10.4,-,0.00,Snow,Light Snow,280,2013-02-24 17:33:00
12:49 PM,32.0,24.8,75,29.89,3.0,West,10.4,-,0.01,Snow,Light Snow,280,2013-02-24 17:49:00
12:54 PM,33.1,24.1,70,29.91,6.0,West,11.5,19.6,0.01,Snow,Light Snow,280,2013-02-24 17:54:00
1:54 PM,32.0,23.0,69,29.91,7.0,West,15.0,-,0.00,Snow,Light Snow,260,2013-02-24 18:54:00
2:54 PM,32.0,24.1,73,29.93,6.0,West,12.7,23.0,0.00,Snow,Light Snow,260,2013-02-24 19:54:00
3:54 PM,33.1,23.0,66,29.95,10.0,WNW,13.8,21.9,0.00,Snow,Light Snow,290,2013-02-24 20:54:00
4:05 PM,32.0,24.8,75,29.93,5.0,West,16.1,21.9,0.00,Snow,Light Snow,270,2013-02-24 21:05:00
4:21 PM,30.2,24.8,80,29.94,2.0,West,13.8,-,0.00,Snow,Light Snow,260,2013-02-24 21:21:00
4:48 PM,30.2,26.6,86,29.95,4.0,West,9.2,-,0.00,Snow,Light Snow,260,2013-02-24 21:48:00
4:54 PM,30.9,26.1,82,29.97,4.0,West,15.0,20.7,0.00,Snow,Light Snow,270,2013-02-24 21:54:00
5:32 PM,30.2,26.6,86,29.97,2.0,West,11.5,-,0.00,Snow,Light Snow,270,2013-02-24 22:32:00
5:54 PM,30.0,26.1,85,29.99,6.0,West,8.1,-,0.00,Snow,Light Snow,260,2013-02-24 22:54:00
6:54 PM,30.9,26.1,82,30.02,6.0,West,10.4,-,0.00,Snow,Light Snow,260,2013-02-24 23:54:00
7:08 PM,30.2,26.6,86,30.01,2.0,West,10.4,-,0.00,Snow,Light Snow,270,2013-02-25 00:08:00
7:28 PM,30.2,26.6,86,30.01,5.0,West,9.2,-,0.00,Snow,Light Snow,260,2013-02-25 00:28:00
7:54 PM,30.9,27.0,85,30.04,7.0,WSW,9.2,-,0.00,Snow,Light Snow,240,2013-02-25 00:54:00
8:54 PM,32.0,26.1,79,30.06,9.0,West,12.7,-,0.00,Snow,Light Snow,270,2013-02-25 01:54:00
9:54 PM,32.0,26.1,79,30.06,6.0,West,10.4,-,0.00,Snow,Light Snow,280,2013-02-25 02:54:00
10:17 PM,32.0,26.6,80,30.04,8.0,West,12.7,-,0.00,Snow,Light Snow,270,2013-02-25 03:17:00
10:54 PM,32.0,25.0,75,30.06,9.0,West,10.4,-,0.00,,Overcast,280,2013-02-25 03:54:00
11:54 PM,32.0,25.0,75,30.07,10.0,West,10.4,-,N/A,,Overcast,270,2013-02-25 04:54:00